Regional Weather Roundup
Issued by NWS

Home | Current Version | Previous Version | Graphics & Text | Print | Product List | Glossary On
Versions: 1 2 3 4 5 6 7 8 9 10 11 12 13 14 15 16 17 18 19 20 21 22 23 24 25 26 27 28 29 30 31 32 33 34 35 36 37 38 39 40 41 42 43 44 45 46 47 48 49 50
000
ASUS43 KOAX 251510
RWRNE

WEATHER ROUNDUP FOR NEBRASKA
NATIONAL WEATHER SERVICE OMAHA NE
1000 AM CDT MON MAY 25 2015

NOTES: SATELLITE DATA IS BEING USED TO AUGMENT CLOUD COVER ABOVE
       12000 FEET.
       "FAIR" INDICATES FEW OR NO CLOUDS BELOW 12,000 FEET WITH NO
       SIGNIFICANT WEATHER AND/OR OBSTRUCTIONS TO VISIBILITY.

  * THESE STATIONS DO NOT REPORT WEATHER SUCH AS RAIN...SNOW OR FOG.

NEZ001>004-019>022-054>056-251600-
NEBRASKA PANHANDLE

CITY           SKY/WX    TMP DP  RH WIND       PRES   REMARKS
SCOTTSBLUFF    LGT RAIN  51  50  96 W9        29.85R
ALLIANCE       LGT RAIN  51  48  89 NW7       29.81R FOG
CHADRON        CLOUDY    53  50  89 N12       29.83S
KIMBALL          N/A    N/A N/A N/A MISG        N/A
SIDNEY         LGT RAIN  50  48  93 NW9       29.85S
$$

NEZ057>060-069>072-079>082-251600-
SOUTHWEST NEBRASKA

CITY           SKY/WX    TMP DP  RH WIND       PRES   REMARKS
NORTH PLATTE   PTSUNNY   57  52  83 SW6       29.81S
IMPERIAL       PTSUNNY   56  51  84 NW5       29.83R
LEXINGTON      MOSUNNY   64  55  73 W5        29.80F
MCCOOK         SUNNY     62  53  72 SW8       29.81S
OGALLALA       CLOUDY    56  53  92 W10       29.81S
$$

NEZ005>010-023>029-035>040-094-251600-
NORTH CENTRAL NEBRASKA

CITY           SKY/WX    TMP DP  RH WIND       PRES   REMARKS
VALENTINE      CLOUDY    61  55  81 NE9       29.77S
AINSWORTH      HVY RAIN  57  57 100 NE10      29.77S
BROKEN BOW     MOSUNNY   62  54  74 W8        29.78S
O`NEILL        CLOUDY    60  60  99 E6        29.78F
ORD            MOSUNNY   62  55  77 SW6       29.76S
THEDFORD       RAIN      55  54  94 SW8       29.78S
$$

NEZ041-046>049-061>064-073>077-083>087-251600-
SOUTH CENTRAL NEBRASKA

CITY           SKY/WX    TMP DP  RH WIND       PRES   REMARKS
GRAND ISLAND   SUNNY     65  53  65 SW8       29.80S
AURORA         MOSUNNY   66  55  66 W9        29.80S
HASTINGS       SUNNY     66  53  63 SW6       29.81S
HEBRON         CLOUDY    62  55  78 SW5       29.83F
HOLDREGE       SUNNY     63  54  71 SW3       29.81S
KEARNEY *      SUNNY     63  52  67 SW7       29.81R
YORK           MOSUNNY   64  57  77 SW8       29.82R
$$

NEZ011>018-030>034-042>045-251600-
NORTHEAST NEBRASKA

CITY           SKY/WX    TMP DP  RH WIND       PRES   REMARKS
NORFOLK        CLOUDY    63  59  87 S8        29.78S
ALBION         CLOUDY    63  57  81 S8        29.78S
BLAIR          CLOUDY    64  58  80 S9        29.81R
COLUMBUS *     CLOUDY    63  52  67 SW10      29.82S
FREMONT        LGT RAIN  65  59  80 S7        29.81F
TEKAMAH        CLOUDY    67  60  78 SW12      29.80R
WAYNE          CLOUDY    62  61  97 S3        29.79S FOG
$$

NEZ050>053-065>068-078-088>093-251600-
SOUTHEAST NEBRASKA

CITY           SKY/WX    TMP DP  RH WIND       PRES   REMARKS
LINCOLN        MOSUNNY   67  58  72 SW7       29.82F
OMAHA EPPLEY   PTSUNNY   66  59  78 S8        29.82R
BEATRICE       PTSUNNY   66  58  76 SW10G18   29.84R
FALLS CITY     MOSUNNY   70  59  68 S14G25    29.81R
NEBRASKA CITY  MOSUNNY   67  59  76 SW9       29.83R
PLATTSMOUTH    PTSUNNY   67  59  75 S7        29.83R
$$

NEZ044-045-051>053-067-251600-
OMAHA AREA

CITY           SKY/WX    TMP DP  RH WIND       PRES   REMARKS
OMAHA EPPLEY   PTSUNNY   66  59  78 S8        29.82R
BLAIR          CLOUDY    64  58  80 S9        29.81R
FREMONT        LGT RAIN  65  59  80 S7        29.81F
MILLARD        CLOUDY    68  59  73 S9        29.81F
OFFUTT AFB     CLOUDY    68  61  78 VRB5      29.82R
PLATTSMOUTH    PTSUNNY   67  59  75 S7        29.83R
WAHOO          FAIR      66  58  76 S9        29.80S
$$


USA.gov is the U.S. government's official web portal to all federal, state and local government web resources and services.